Time,TemperatureF,DewpointF,PressureIn,WindDirection,WindDirectionDegrees,WindSpeedMPH,WindSpeedGustMPH,Humidity,HourlyPrecipIn,Conditions,Clouds,dailyrainin,SolarRadiationWatts/m^2,SoftwareType,DateUTC
2013-02-03 00:42:00,4.0,0.0,-100.00,NNE,22,1.0,-999.0,84,-99.99,,,-99.99,0.000000,,2013-02-03 05:42:00,
2013-02-03 00:52:00,4.0,0.0,-100.00,NNE,22,1.0,-999.0,84,-99.99,,,-99.99,0.000000,,2013-02-03 05:52:00,
2013-02-03 01:42:00,0.0,-4.0,-100.00,NW,315,0.0,-999.0,83,-99.99,,,-99.99,0.000000,,2013-02-03 06:42:00,
2013-02-03 01:52:00,0.0,-4.0,-100.00,NW,315,0.0,-999.0,83,-99.99,,,-99.99,0.000000,,2013-02-03 06:52:00,
2013-02-03 02:42:00,-2.0,-6.0,-100.00,WNW,292,0.0,-999.0,83,-99.99,,,-99.99,0.000000,,2013-02-03 07:42:00,
2013-02-03 02:52:00,-2.0,-6.0,-100.00,WNW,292,0.0,-999.0,83,-99.99,,,-99.99,0.000000,,2013-02-03 07:52:00,
2013-02-03 04:00:00,1.0,-3.0,-100.00,WSW,247,0.0,-999.0,85,-99.99,,,-99.99,0.000000,,2013-02-03 09:00:00,
2013-02-03 04:42:00,1.0,-3.0,-100.00,WSW,247,0.0,-999.0,85,-99.99,,,-99.99,0.000000,,2013-02-03 09:42:00,
2013-02-03 04:52:00,1.0,-3.0,-100.00,WSW,247,0.0,-999.0,85,-99.99,,,-99.99,0.000000,,2013-02-03 09:52:00,
2013-02-03 05:00:00,0.0,-4.0,-100.00,WSW,247,0.0,-999.0,84,-99.99,,,-99.99,0.000000,,2013-02-03 10:00:00,
2013-02-03 05:42:00,0.0,-4.0,-100.00,WSW,247,0.0,-999.0,84,-99.99,,,-99.99,0.000000,,2013-02-03 10:42:00,
2013-02-03 05:53:00,0.0,-4.0,-100.00,WSW,247,0.0,-999.0,84,-99.99,,,-99.99,0.000000,,2013-02-03 10:53:00,
2013-02-03 06:42:00,-5.0,-9.0,-100.00,West,270,0.0,-999.0,83,-99.99,,,-99.99,0.000000,,2013-02-03 11:42:00,
2013-02-03 06:52:00,-5.0,-9.0,-100.00,West,270,0.0,-999.0,83,-99.99,,,-99.99,0.000000,,2013-02-03 11:52:00,
2013-02-03 07:00:00,0.0,-3.0,-100.00,WSW,247,0.0,-999.0,86,-99.99,,,-99.99,0.000000,,2013-02-03 12:00:00,
2013-02-03 07:42:00,0.0,-3.0,-100.00,WSW,247,0.0,-999.0,86,-99.99,,,-99.99,0.000000,,2013-02-03 12:42:00,
2013-02-03 07:53:00,0.0,-3.0,-100.00,WSW,247,0.0,-999.0,86,-99.99,,,-99.99,0.000000,,2013-02-03 12:53:00,
2013-02-03 08:00:00,5.0,1.0,-100.00,WSW,247,0.0,-999.0,86,-99.99,,,-99.99,2.320000,,2013-02-03 13:00:00,
2013-02-03 08:32:00,5.0,1.0,-100.00,WSW,247,0.0,-999.0,86,-99.99,,,-99.99,2.320000,,2013-02-03 13:32:00,
2013-02-03 08:42:00,5.0,1.0,-100.00,WSW,247,0.0,-999.0,86,-99.99,,,-99.99,2.320000,,2013-02-03 13:42:00,
2013-02-03 08:52:00,5.0,1.0,-100.00,WSW,247,0.0,-999.0,86,-99.99,,,-99.99,2.320000,,2013-02-03 13:52:00,
2013-02-03 09:00:00,6.0,3.0,-100.00,WSW,247,0.0,-999.0,85,-99.99,,,-99.99,59.160000,,2013-02-03 14:00:00,
2013-02-03 09:42:00,6.0,3.0,-100.00,WSW,247,0.0,-999.0,85,-99.99,,,-99.99,59.160000,,2013-02-03 14:42:00,
2013-02-03 09:52:00,6.0,3.0,-100.00,WSW,247,0.0,-999.0,85,-99.99,,,-99.99,59.160000,,2013-02-03 14:52:00,
2013-02-03 10:00:00,8.0,5.0,-100.00,West,270,1.0,-999.0,84,-99.99,,,-99.99,162.399994,,2013-02-03 15:00:00,
2013-02-03 10:42:00,8.0,5.0,-100.00,West,270,1.0,-999.0,84,-99.99,,,-99.99,162.399994,,2013-02-03 15:42:00,
2013-02-03 10:52:00,8.0,5.0,-100.00,West,270,1.0,-999.0,84,-99.99,,,-99.99,162.399994,,2013-02-03 15:52:00,
2013-02-03 11:00:00,11.0,7.0,-100.00,WSW,247,4.0,-999.0,84,-99.99,,,-99.99,245.919998,,2013-02-03 16:00:00,
2013-02-03 11:42:00,11.0,7.0,-100.00,WSW,247,4.0,-999.0,84,-99.99,,,-99.99,245.919998,,2013-02-03 16:42:00,
2013-02-03 11:52:00,11.0,7.0,-100.00,WSW,247,4.0,-999.0,84,-99.99,,,-99.99,245.919998,,2013-02-03 16:52:00,
2013-02-03 12:00:00,14.0,9.0,-100.00,West,270,6.0,-999.0,81,-99.99,,,-99.99,387.440002,,2013-02-03 17:00:00,
2013-02-03 12:42:00,14.0,9.0,-100.00,West,270,6.0,-999.0,81,-99.99,,,-99.99,387.440002,,2013-02-03 17:42:00,
2013-02-03 12:52:00,14.0,9.0,-100.00,West,270,6.0,-999.0,81,-99.99,,,-99.99,387.440002,,2013-02-03 17:52:00,
2013-02-03 13:00:00,17.0,11.0,-100.00,WSW,247,7.0,-999.0,76,-99.99,,,-99.99,547.520020,,2013-02-03 18:00:00,
2013-02-03 13:42:00,17.0,11.0,-100.00,WSW,247,7.0,-999.0,76,-99.99,,,-99.99,547.520020,,2013-02-03 18:42:00,
2013-02-03 13:52:00,17.0,11.0,-100.00,WSW,247,7.0,-999.0,76,-99.99,,,-99.99,547.520020,,2013-02-03 18:52:00,
2013-02-03 14:00:00,19.0,12.0,-100.00,WSW,247,10.0,-999.0,74,-99.99,,,-99.99,525.479980,,2013-02-03 19:00:00,
2013-02-03 14:42:00,19.0,12.0,-100.00,WSW,247,10.0,-999.0,74,-99.99,,,-99.99,525.479980,,2013-02-03 19:42:00,
2013-02-03 14:52:00,19.0,12.0,-100.00,WSW,247,10.0,-999.0,74,-99.99,,,-99.99,525.479980,,2013-02-03 19:52:00,
2013-02-03 15:00:00,19.0,13.0,-100.00,SW,225,12.0,-999.0,76,-99.99,,,-99.99,302.760010,,2013-02-03 20:00:00,
2013-02-03 15:42:00,19.0,13.0,-100.00,SW,225,12.0,-999.0,76,-99.99,,,-99.99,302.760010,,2013-02-03 20:42:00,
2013-02-03 15:52:00,19.0,13.0,-100.00,SW,225,12.0,-999.0,76,-99.99,,,-99.99,302.760010,,2013-02-03 20:52:00,
2013-02-03 16:00:00,21.0,13.0,-100.00,West,270,13.0,-999.0,70,-99.99,,,-99.99,203.000000,,2013-02-03 21:00:00,
2013-02-03 16:42:00,21.0,13.0,-100.00,West,270,13.0,-999.0,70,-99.99,,,-99.99,203.000000,,2013-02-03 21:42:00,
2013-02-03 16:52:00,21.0,13.0,-100.00,West,270,13.0,-999.0,70,-99.99,,,-99.99,203.000000,,2013-02-03 21:52:00,
2013-02-03 17:00:00,21.0,13.0,-100.00,West,270,13.0,-999.0,70,-99.99,,,-99.99,99.760002,,2013-02-03 22:00:00,
2013-02-03 17:42:00,21.0,13.0,-100.00,West,270,13.0,-999.0,70,-99.99,,,-99.99,99.760002,,2013-02-03 22:42:00,
2013-02-03 17:52:00,21.0,13.0,-100.00,West,270,13.0,-999.0,70,-99.99,,,-99.99,99.760002,,2013-02-03 22:52:00,
2013-02-03 18:00:00,20.0,15.0,-100.00,WNW,292,12.0,-999.0,80,-99.99,,,-99.99,20.879999,,2013-02-03 23:00:00,
2013-02-03 18:42:00,20.0,15.0,-100.00,WNW,292,12.0,-999.0,80,-99.99,,,-99.99,20.879999,,2013-02-03 23:42:00,
2013-02-03 18:52:00,20.0,15.0,-100.00,WNW,292,12.0,-999.0,80,-99.99,,,-99.99,20.879999,,2013-02-03 23:52:00,
2013-02-03 19:00:00,19.0,14.0,-100.00,WNW,292,11.0,-999.0,81,-99.99,,,-99.99,0.000000,,2013-02-04 00:00:00,
2013-02-03 19:42:00,19.0,14.0,-100.00,WNW,292,11.0,-999.0,81,-99.99,,,-99.99,0.000000,,2013-02-04 00:42:00,
2013-02-03 19:52:00,19.0,14.0,-100.00,WNW,292,11.0,-999.0,81,-99.99,,,-99.99,0.000000,,2013-02-04 00:52:00,
2013-02-03 20:00:00,18.0,10.0,-100.00,NW,315,10.0,-999.0,69,-99.99,,,-99.99,0.000000,,2013-02-04 01:00:00,
2013-02-03 20:42:00,18.0,10.0,-100.00,NW,315,10.0,-999.0,69,-99.99,,,-99.99,0.000000,,2013-02-04 01:42:00,
2013-02-03 20:52:00,18.0,10.0,-100.00,NW,315,10.0,-999.0,69,-99.99,,,-99.99,0.000000,,2013-02-04 01:52:00,
2013-02-03 21:00:00,18.0,11.0,-100.00,NW,315,10.0,-999.0,74,-99.99,,,-99.99,0.000000,,2013-02-04 02:00:00,
2013-02-03 21:42:00,18.0,11.0,-100.00,NW,315,10.0,-999.0,74,-99.99,,,-99.99,0.000000,,2013-02-04 02:42:00,
2013-02-03 21:52:00,18.0,11.0,-100.00,NW,315,10.0,-999.0,74,-99.99,,,-99.99,0.000000,,2013-02-04 02:52:00,
2013-02-03 22:00:00,18.0,10.0,-100.00,NW,315,8.0,-999.0,72,-99.99,,,-99.99,0.000000,,2013-02-04 03:00:00,
2013-02-03 22:42:00,18.0,10.0,-100.00,NW,315,8.0,-999.0,72,-99.99,,,-99.99,0.000000,,2013-02-04 03:42:00,
2013-02-03 22:52:00,18.0,10.0,-100.00,NW,315,8.0,-999.0,72,-99.99,,,-99.99,0.000000,,2013-02-04 03:52:00,
2013-02-03 23:00:00,18.0,10.0,-100.00,NW,315,5.0,-999.0,72,-99.99,,,-99.99,0.000000,,2013-02-04 04:00:00,
2013-02-03 23:22:00,18.0,10.0,-100.00,NW,315,5.0,-999.0,72,-99.99,,,-99.99,0.000000,,2013-02-04 04:22:00,
2013-02-03 23:32:00,18.0,10.0,-100.00,NW,315,5.0,-999.0,72,-99.99,,,-99.99,0.000000,,2013-02-04 04:32:00,
2013-02-03 23:42:00,18.0,10.0,-100.00,NW,315,5.0,-999.0,72,-99.99,,,-99.99,0.000000,,2013-02-04 04:42:00,
2013-02-03 23:52:00,18.0,10.0,-100.00,NW,315,5.0,-999.0,72,-99.99,,,-99.99,0.000000,,2013-02-04 04:52:00,